Platte River (Nebraska), North Bend (06796000)

StateNebraskaLatestUnknown (1880 cfs)
RiverPlatte RiverRatingObservedEstimated
Updated2026-05-10 11:15 (36 minutes ago)Flood - The river is flooding. Obstacles can be treacherous or deadly. The river should be avoided at this stage for casual trips and definitely for the inexperienced. Trips should be attempted only with protective gear and equipment.Flood(none)(none)
Discharge1880 cfs (median: 4890 cfs)High - The river is high and potentially dangerous, especially for the young and / or inexperienced. Normal stream obstacles are sometimes difficult to navigate. Extended distances can be attempted, but canoe travel may not be advisable.High(none)(none)
Height2.86 feetGood - Conditions are ideal for a canoe or kayak. Boats typically will drag on fewer than one-quarter of riffles, if at all, and portages are unnecessary or rare. Normal float lengths can be attempted without a problem.Good(none)(none)
TrendRising (falling over 24 hours)Low - River is low but can still be floated. Some riffles are okay but most come with significant dragging and might need a portage. Float lengths should be reduced to accommodate low flow, dragging, and portages.Low(none)(none)
USGSExternal icon USGS Site (External icon Duck Duck Go Maps)Poor - River is too low to float comfortably. Most or all riffles will drag or must be portaged and some obstacles (such as slick shelf rock) cause undue problems. Avoid the river at this stage for casual paddling trips.Poor(none)(none)

Trending Data

Plot Image

Trips for Platte River (Nebraska), North Bend (06796000)

DateStartEndDistanceConditionDischargeHeightFishingDetails

A total of 0 rows are displayed.

Condition Descriptions

Fishing Conditions

Fish Species

Notes

Classic Trip List

The classic River Trips application is still available for use. It is updated with the new system using a data retrofit. It is no longer maintained. The original River Trips application is no longer updated (as of 1 Dec 2016) but can be checked for errors or for the condition of the data before it was converted to the new system.

Gauge Data Table

ObservationHeightDischargeMaximum
Discharge
Minimum
Discharge
Mean
Discharge
P05P10P20P25P50
(Median)
P75P80P90P95
2026-05-10 11:15 2.86 1880 23300 (1984) 1360 (1955) 5620 2090 2290 3140 3450 4890 7040 7910 10500 11100
2026-05-10 10:15 2.83 1810 23300 (1984) 1360 (1955) 5620 2090 2290 3140 3450 4890 7040 7910 10500 11100
2026-05-10 09:15 2.82 1790 23300 (1984) 1360 (1955) 5620 2090 2290 3140 3450 4890 7040 7910 10500 11100
2026-05-10 08:15 2.81 1760 23300 (1984) 1360 (1955) 5620 2090 2290 3140 3450 4890 7040 7910 10500 11100
2026-05-10 07:15 2.81 1760 23300 (1984) 1360 (1955) 5620 2090 2290 3140 3450 4890 7040 7910 10500 11100
2026-05-10 06:15 2.81 1760 23300 (1984) 1360 (1955) 5620 2090 2290 3140 3450 4890 7040 7910 10500 11100
2026-05-10 05:15 2.81 1760 23300 (1984) 1360 (1955) 5620 2090 2290 3140 3450 4890 7040 7910 10500 11100
2026-05-10 04:15 2.80 1740 23300 (1984) 1360 (1955) 5620 2090 2290 3140 3450 4890 7040 7910 10500 11100
2026-05-10 03:15 2.80 1740 23300 (1984) 1360 (1955) 5620 2090 2290 3140 3450 4890 7040 7910 10500 11100
2026-05-10 02:15 2.80 1740 23300 (1984) 1360 (1955) 5620 2090 2290 3140 3450 4890 7040 7910 10500 11100
2026-05-10 01:15 2.81 1760 23300 (1984) 1360 (1955) 5620 2090 2290 3140 3450 4890 7040 7910 10500 11100
2026-05-10 00:15 2.81 1760 23300 (1984) 1360 (1955) 5620 2090 2290 3140 3450 4890 7040 7910 10500 11100
2026-05-09 23:15 2.83 1810 23300 (1984) 1360 (1955) 5620 2090 2290 3140 3450 4890 7040 7910 10500 11100
2026-05-09 22:15 2.85 1860 25500 (1984) 946 (1955) 5540 2150 2460 3000 3530 4580 6480 7560 9440 12500
2026-05-09 21:15 2.88 1930 25500 (1984) 946 (1955) 5540 2150 2460 3000 3530 4580 6480 7560 9440 12500
2026-05-09 20:15 2.90 1970 25500 (1984) 946 (1955) 5540 2150 2460 3000 3530 4580 6480 7560 9440 12500
2026-05-09 19:15 2.94 2070 25500 (1984) 946 (1955) 5540 2150 2460 3000 3530 4580 6480 7560 9440 12500
2026-05-09 18:15 2.97 2150 25500 (1984) 946 (1955) 5540 2150 2460 3000 3530 4580 6480 7560 9440 12500
2026-05-09 17:15 3.01 2250 25500 (1984) 946 (1955) 5540 2150 2460 3000 3530 4580 6480 7560 9440 12500
2026-05-09 16:15 3.03 2300 25500 (1984) 946 (1955) 5540 2150 2460 3000 3530 4580 6480 7560 9440 12500
2026-05-09 15:15 3.03 2300 25500 (1984) 946 (1955) 5540 2150 2460 3000 3530 4580 6480 7560 9440 12500
2026-05-09 14:15 3.04 2330 25500 (1984) 946 (1955) 5540 2150 2460 3000 3530 4580 6480 7560 9440 12500
2026-05-09 13:15 3.05 2350 25500 (1984) 946 (1955) 5540 2150 2460 3000 3530 4580 6480 7560 9440 12500
2026-05-09 12:15 3.05 2350 25500 (1984) 946 (1955) 5540 2150 2460 3000 3530 4580 6480 7560 9440 12500
2026-05-09 11:15 3.05 2350 25500 (1984) 946 (1955) 5540 2150 2460 3000 3530 4580 6480 7560 9440 12500
2026-05-09 10:15 3.05 2350 25500 (1984) 946 (1955) 5540 2150 2460 3000 3530 4580 6480 7560 9440 12500
2026-05-09 09:15 3.06 2380 25500 (1984) 946 (1955) 5540 2150 2460 3000 3530 4580 6480 7560 9440 12500
2026-05-09 08:15 3.06 2380 25500 (1984) 946 (1955) 5540 2150 2460 3000 3530 4580 6480 7560 9440 12500
2026-05-09 07:15 3.06 2380 25500 (1984) 946 (1955) 5540 2150 2460 3000 3530 4580 6480 7560 9440 12500
2026-05-09 06:15 3.06 2380 25500 (1984) 946 (1955) 5540 2150 2460 3000 3530 4580 6480 7560 9440 12500
2026-05-09 05:15 3.06 2380 25500 (1984) 946 (1955) 5540 2150 2460 3000 3530 4580 6480 7560 9440 12500
2026-05-09 04:15 3.06 2380 25500 (1984) 946 (1955) 5540 2150 2460 3000 3530 4580 6480 7560 9440 12500
2026-05-09 03:15 3.05 2350 25500 (1984) 946 (1955) 5540 2150 2460 3000 3530 4580 6480 7560 9440 12500
2026-05-09 02:15 3.06 2380 25500 (1984) 946 (1955) 5540 2150 2460 3000 3530 4580 6480 7560 9440 12500
2026-05-09 01:15 3.05 2350 25500 (1984) 946 (1955) 5540 2150 2460 3000 3530 4580 6480 7560 9440 12500
2026-05-09 00:15 3.06 2380 25500 (1984) 946 (1955) 5540 2150 2460 3000 3530 4580 6480 7560 9440 12500
2026-05-08 23:15 3.05 2350 25500 (1984) 946 (1955) 5540 2150 2460 3000 3530 4580 6480 7560 9440 12500

A total of 37 rows are displayed for years 1949 through 2025.